TimeEDT,TemperatureF,Dew PointF,Humidity,Sea Level PressureIn,VisibilityMPH,Wind Direction,Wind SpeedMPH,Gust SpeedMPH,PrecipitationIn,Events,Conditions,WindDirDegrees,DateUTC
12:53 AM,79.0,73.9,84,29.90,10.0,WSW,12.7,-,N/A,,Clear,240,2013-06-19 04:53:00
1:53 AM,77.0,72.0,84,29.89,10.0,Calm,Calm,-,N/A,,Mostly Cloudy,0,2013-06-19 05:53:00
2:53 AM,79.0,75.0,88,29.88,10.0,SW,11.5,17.3,0.00,,Mostly Cloudy,220,2013-06-19 06:53:00
3:53 AM,79.0,75.9,90,29.87,9.0,SW,9.2,-,N/A,,Partly Cloudy,230,2013-06-19 07:53:00
4:53 AM,78.1,75.0,90,29.88,10.0,WSW,8.1,-,N/A,,Scattered Clouds,250,2013-06-19 08:53:00
5:19 AM,75.2,73.4,94,29.89,10.0,Variable,3.5,-,N/A,,Mostly Cloudy,0,2013-06-19 09:19:00
5:46 AM,75.2,73.4,94,29.90,10.0,Variable,5.8,-,N/A,,Overcast,0,2013-06-19 09:46:00
5:53 AM,75.0,73.0,94,29.91,10.0,WNW,3.5,-,N/A,,Overcast,300,2013-06-19 09:53:00
6:10 AM,75.2,71.6,89,29.91,10.0,Variable,3.5,-,N/A,,Mostly Cloudy,0,2013-06-19 10:10:00
6:17 AM,75.2,71.6,89,29.91,10.0,Calm,Calm,-,N/A,,Scattered Clouds,0,2013-06-19 10:17:00
6:53 AM,75.0,72.0,90,29.92,10.0,WNW,3.5,-,N/A,,Clear,290,2013-06-19 10:53:00
7:53 AM,75.9,71.1,85,29.94,10.0,Variable,3.5,-,N/A,,Clear,0,2013-06-19 11:53:00
8:39 AM,75.2,71.6,89,29.96,10.0,NNW,4.6,-,N/A,,Overcast,330,2013-06-19 12:39:00
8:53 AM,77.0,71.1,82,29.96,10.0,NW,6.9,-,N/A,,Overcast,320,2013-06-19 12:53:00
9:53 AM,77.0,71.1,82,29.97,10.0,NNW,5.8,-,N/A,,Overcast,340,2013-06-19 13:53:00
10:46 AM,75.2,69.8,83,29.99,8.0,North,6.9,-,0.00,Rain,Light Rain,360,2013-06-19 14:46:00
10:53 AM,75.9,71.1,85,29.99,10.0,North,5.8,-,0.00,Rain,Light Rain,10,2013-06-19 14:53:00
11:09 AM,77.0,71.6,83,29.99,10.0,North,5.8,-,0.00,,Scattered Clouds,350,2013-06-19 15:09:00
11:27 AM,77.0,71.6,83,29.99,10.0,North,3.5,-,0.00,,Mostly Cloudy,10,2013-06-19 15:27:00
11:53 AM,75.9,70.0,82,30.00,10.0,NNE,8.1,-,0.00,,Overcast,20,2013-06-19 15:53:00
12:53 PM,78.1,69.1,74,30.00,10.0,North,6.9,-,N/A,,Mostly Cloudy,10,2013-06-19 16:53:00
1:03 PM,78.8,69.8,74,30.00,10.0,North,8.1,-,N/A,,Scattered Clouds,10,2013-06-19 17:03:00
1:17 PM,78.8,69.8,74,29.99,10.0,NNE,5.8,-,N/A,,Mostly Cloudy,20,2013-06-19 17:17:00
1:44 PM,77.0,69.8,78,30.00,10.0,NE,6.9,-,0.00,Rain,Light Rain,50,2013-06-19 17:44:00
1:53 PM,78.1,69.1,74,30.00,10.0,NNE,6.9,-,0.00,,Overcast,20,2013-06-19 17:53:00
2:17 PM,77.0,69.8,78,29.99,10.0,NNE,6.9,-,N/A,,Mostly Cloudy,20,2013-06-19 18:17:00
2:43 PM,78.8,69.8,74,29.99,10.0,NNE,8.1,-,N/A,,Overcast,30,2013-06-19 18:43:00
2:53 PM,79.0,70.0,74,30.00,10.0,North,9.2,-,N/A,,Overcast,10,2013-06-19 18:53:00
3:53 PM,78.1,69.1,74,30.00,10.0,NNE,5.8,-,N/A,,Overcast,20,2013-06-19 19:53:00
4:01 PM,78.8,69.8,74,29.99,10.0,NNE,6.9,-,N/A,,Overcast,30,2013-06-19 20:01:00
4:14 PM,78.8,69.8,74,29.99,10.0,NNE,8.1,-,N/A,,Mostly Cloudy,20,2013-06-19 20:14:00
4:53 PM,77.0,69.1,76,30.00,10.0,NE,6.9,-,N/A,,Mostly Cloudy,40,2013-06-19 20:53:00
5:33 PM,75.2,69.8,83,30.00,10.0,NNE,8.1,-,N/A,,Mostly Cloudy,20,2013-06-19 21:33:00
5:53 PM,75.9,69.1,79,30.01,10.0,NNE,5.8,-,N/A,,Overcast,20,2013-06-19 21:53:00
6:53 PM,75.9,69.1,79,30.02,10.0,NNE,4.6,-,N/A,,Overcast,30,2013-06-19 22:53:00
7:11 PM,75.2,69.8,83,30.02,10.0,NNE,8.1,-,N/A,,Overcast,30,2013-06-19 23:11:00
7:53 PM,75.0,69.1,82,30.02,10.0,ENE,10.4,-,N/A,,Overcast,60,2013-06-19 23:53:00
8:53 PM,75.0,68.0,79,30.03,10.0,East,6.9,-,N/A,,Overcast,100,2013-06-20 00:53:00
9:53 PM,73.9,68.0,82,30.07,10.0,NE,8.1,-,N/A,,Overcast,50,2013-06-20 01:53:00
10:53 PM,73.9,68.0,82,30.07,10.0,ENE,8.1,-,0.00,,Overcast,60,2013-06-20 02:53:00
11:53 PM,73.9,69.1,85,30.09,10.0,ENE,10.4,-,0.00,Rain,Light Rain,60,2013-06-20 03:53:00